{"data":{"norad_id":55244,"intl_designator":"2023-006C","name":"YAOGAN-37","alt_names":[],"object_type":"PAYLOAD","status":"ACTIVE","operator":null,"country":"PRC","launch_date":"2023-01-13","launch_site_code":"JSC","launch_vehicle":null,"mission":null,"orbit_class":"UNKNOWN","rcs_meters":null,"size_class":null,"mass_kg":null,"dimensions":null,"purposes":[],"wikipedia_slug":null,"has_3d_model":false,"image_url":null,"decayed_at":null,"tle_current":{"epoch":"2026-09-15T17:13:33.959424Z","epoch_age_seconds":581446,"freshness":"STALE","line1":"1 55244U 23006C   26258.71775416  .00004139  00000+0  21142-3 0  9991","line2":"2 55244  43.1983 340.8136 0017003 226.7091 133.2342 15.17904795203633","mean_motion":15.17904795,"eccentricity":0.0017003,"inclination_deg":43.1983,"raan_deg":340.8136,"arg_perigee_deg":226.7091,"mean_anomaly_deg":133.2342,"bstar":0.00021142,"rev_number":20363,"period_min":94.867609928065,"perigee_km":500.45832183873,"apogee_km":523.88951314475,"semimajor_km":6890.3109174917,"source":"CELESTRAK","updated_at":"2026-09-22T09:00:25.315248Z"}}}